Вернуться в каталог

METEOSAT 4

MOP 1

АктивенПогодаGEO
NORAD 19876·PAYLOAD·🇪🇺 EU

Запущен Mar 6, 1989 с Guiana Space Centre

Loading…

TLE

СвежийSource: Space-Track

Эпоха: Sep 14, 2026, 11:35 UTC

1 19876U 89020B   26257.48298904 -.00000122  00000-0  00000-0 0  9992
2 19876  14.8391 345.7110 0022924 213.5939 174.3964  0.97109701113802

Отслеживайте METEOSAT 4 в реальном времени с AllMySat

Download on the App Store